This is the latest recevied weather packets stored in our database for station/object F4HUO-10. If no packets are shown the sender has not sent any weather packets the latest 10 day(s).
| Time | Temp. | Humidity | Pressure | Rain* | Wind** | Luminosity | Snow |
|---|---|---|---|---|---|---|---|
| 1778076464 | 21.67° C | 50% | 999.3 hPa | - | - | - | - |
| 1778072862 | 21.67° C | 50% | 999.3 hPa | - | - | - | - |
| 1778069261 | 21.11° C | 51% | 998.8 hPa | - | - | - | - |
| 1778065660 | 21.11° C | 51% | 998.9 hPa | - | - | - | - |
| 1778062066 | 21.67° C | 54% | 998.7 hPa | - | - | - | - |
| 1778058465 | 21.11° C | 54% | 998.6 hPa | - | - | - | - |
| 1778054863 | 21.11° C | 53% | 998.3 hPa | - | - | - | - |
| 1778051262 | 21.11° C | 55% | 997.6 hPa | - | - | - | - |
| 1778047660 | 20.56° C | 54% | 997.1 hPa | - | - | - | - |
| 1778044059 | 20.56° C | 54% | 996.6 hPa | - | - | - | - |
| 1778040466 | 20.56° C | 55% | 996.4 hPa | - | - | - | - |
| 1778036864 | 20.56° C | 55% | 996.3 hPa | - | - | - | - |
| 1778033262 | 20.56° C | 55% | 996.4 hPa | - | - | - | - |
| 1778029661 | 20.56° C | 55% | 996.3 hPa | - | - | - | - |
| 1778026060 | 21.11° C | 55% | 996.4 hPa | - | - | - | - |
| 1778022458 | 21.11° C | 54% | 996.5 hPa | - | - | - | - |
| 1778018864 | 21.11° C | 54% | 996.4 hPa | - | - | - | - |
| 1778015262 | 21.11° C | 53% | 996.6 hPa | - | - | - | - |
| 1778011661 | 21.67° C | 55% | 996.4 hPa | - | - | - | - |
| 1778008059 | 20.56° C | 57% | 996.1 hPa | - | - | - | - |
| 1778004458 | 20.56° C | 56% | 995.7 hPa | - | - | - | - |
| 1778000856 | 20.56° C | 55% | 996 hPa | - | - | - | - |
| 1777997264 | 20.56° C | 55% | 996 hPa | - | - | - | - |
| 1777993662 | 20.56° C | 55% | 996 hPa | - | - | - | - |
| 1777990061 | 20.56° C | 54% | 996.1 hPa | - | - | - | - |
* Rain since midnight (hover to see other rain measurements)
** Current wind speed in m/s (hover to see current wind gust speed)